Year,Month,Day,Hour,Minute,Value (Times are PST for temperature in C)
2019,04,17,00,00,8.00
2019,04,17,00,01,8.00
2019,04,17,00,02,8.00
2019,04,17,00,03,8.00
2019,04,17,00,04,8.00
2019,04,17,00,05,8.00
2019,04,17,00,06,8.00
2019,04,17,00,07,8.00
2019,04,17,00,08,8.00
2019,04,17,00,09,8.00
2019,04,17,00,10,8.00
2019,04,17,00,11,8.00
2019,04,17,00,12,8.00
2019,04,17,00,13,8.00
2019,04,17,00,14,8.00
2019,04,17,00,15,7.90
2019,04,17,00,16,7.90
2019,04,17,00,17,7.90
2019,04,17,00,18,7.90
2019,04,17,00,19,7.90
2019,04,17,00,20,7.90
2019,04,17,00,21,7.90
2019,04,17,00,22,7.90
2019,04,17,00,23,7.90
2019,04,17,00,24,7.90
2019,04,17,00,25,7.90
2019,04,17,00,26,7.90
2019,04,17,00,27,7.90
2019,04,17,00,28,7.90
2019,04,17,00,29,7.90
2019,04,17,00,30,7.90
2019,04,17,00,31,7.90
2019,04,17,00,32,7.90
2019,04,17,00,33,7.90
2019,04,17,00,34,7.90
2019,04,17,00,35,7.90
2019,04,17,00,36,7.90
2019,04,17,00,37,7.90
2019,04,17,00,38,7.90
2019,04,17,00,39,7.90
2019,04,17,00,40,7.90
2019,04,17,00,41,7.90
2019,04,17,00,42,7.90
2019,04,17,00,43,7.90
2019,04,17,00,44,7.90
2019,04,17,00,45,7.80
2019,04,17,00,46,7.80
2019,04,17,00,47,7.80
2019,04,17,00,48,7.80
2019,04,17,00,49,7.80
2019,04,17,00,50,7.80
2019,04,17,00,51,7.80
2019,04,17,00,52,7.80
2019,04,17,00,53,7.80
2019,04,17,00,54,7.80
2019,04,17,00,55,7.80
2019,04,17,00,56,7.70
2019,04,17,00,57,7.70
2019,04,17,00,58,7.70
2019,04,17,00,59,7.70
2019,04,17,01,00,7.70
2019,04,17,01,01,7.70
2019,04,17,01,02,7.60
2019,04,17,01,03,7.60
2019,04,17,01,04,7.60
2019,04,17,01,05,7.60
2019,04,17,01,06,7.60
2019,04,17,01,07,7.50
2019,04,17,01,08,7.50
2019,04,17,01,09,7.50
2019,04,17,01,10,7.50
2019,04,17,01,11,7.50
2019,04,17,01,12,7.50
2019,04,17,01,13,7.50
2019,04,17,01,14,7.50
2019,04,17,01,15,7.50
2019,04,17,01,16,7.60
2019,04,17,01,17,7.60
2019,04,17,01,18,7.60
2019,04,17,01,19,7.60
2019,04,17,01,20,7.60
2019,04,17,01,21,7.60
2019,04,17,01,22,7.60
2019,04,17,01,23,7.60
2019,04,17,01,24,7.60
2019,04,17,01,25,7.60
2019,04,17,01,26,7.60
2019,04,17,01,27,7.50
2019,04,17,01,28,7.50
2019,04,17,01,29,7.50
2019,04,17,01,30,7.50
2019,04,17,01,31,7.50
2019,04,17,01,32,7.50
2019,04,17,01,33,7.50
2019,04,17,01,34,7.40
2019,04,17,01,35,7.40
2019,04,17,01,36,7.40
2019,04,17,01,37,7.40
2019,04,17,01,38,7.40
2019,04,17,01,39,7.40
2019,04,17,01,40,7.40
2019,04,17,01,41,7.30
2019,04,17,01,42,7.30
2019,04,17,01,43,7.30
2019,04,17,01,44,7.30
2019,04,17,01,45,7.30
2019,04,17,01,46,7.30
2019,04,17,01,47,7.30
2019,04,17,01,48,7.30
2019,04,17,01,49,7.30
2019,04,17,01,50,7.30
2019,04,17,01,51,7.30
2019,04,17,01,52,7.30
2019,04,17,01,53,7.30
2019,04,17,01,54,7.30
2019,04,17,01,55,7.30
2019,04,17,01,56,7.30
2019,04,17,01,57,7.30
2019,04,17,01,58,7.30
2019,04,17,01,59,7.30
2019,04,17,02,00,7.20
2019,04,17,02,01,7.20
2019,04,17,02,02,7.20
2019,04,17,02,03,7.20
2019,04,17,02,04,7.20
2019,04,17,02,05,7.20
2019,04,17,02,06,7.20
2019,04,17,02,07,7.20
2019,04,17,02,08,7.20
2019,04,17,02,09,7.20
2019,04,17,02,10,7.20
2019,04,17,02,11,7.20
2019,04,17,02,12,7.20
2019,04,17,02,13,7.20
2019,04,17,02,14,7.20
2019,04,17,02,15,7.20
2019,04,17,02,16,7.20
2019,04,17,02,17,7.30
2019,04,17,02,18,7.30
2019,04,17,02,19,7.30
2019,04,17,02,20,7.30
2019,04,17,02,21,7.30
2019,04,17,02,22,7.30
2019,04,17,02,23,7.30
2019,04,17,02,24,7.30
2019,04,17,02,25,7.30
2019,04,17,02,26,7.30
2019,04,17,02,27,7.30
2019,04,17,02,28,7.30
2019,04,17,02,29,7.30
2019,04,17,02,30,7.20
2019,04,17,02,31,7.20
2019,04,17,02,32,7.20
2019,04,17,02,33,7.20
2019,04,17,02,34,7.10
2019,04,17,02,35,7.10
2019,04,17,02,36,7.10
2019,04,17,02,37,7.10
2019,04,17,02,38,7.00
2019,04,17,02,39,6.90
2019,04,17,02,40,6.90
2019,04,17,02,41,6.90
2019,04,17,02,42,6.80
2019,04,17,02,43,6.80
2019,04,17,02,44,6.80
2019,04,17,02,45,6.80
2019,04,17,02,46,6.70
2019,04,17,02,47,6.70
2019,04,17,02,48,6.70
2019,04,17,02,49,6.70
2019,04,17,02,50,6.60
2019,04,17,02,51,6.60
2019,04,17,02,52,6.60
2019,04,17,02,53,6.60
2019,04,17,02,54,6.50
2019,04,17,02,55,6.50
2019,04,17,02,56,6.50
2019,04,17,02,57,6.40
2019,04,17,02,58,6.40
2019,04,17,02,59,6.40
2019,04,17,03,00,6.40
2019,04,17,03,01,6.40
2019,04,17,03,02,6.40
2019,04,17,03,03,6.40
2019,04,17,03,04,6.40
2019,04,17,03,05,6.40
2019,04,17,03,06,6.40
2019,04,17,03,07,6.40
2019,04,17,03,08,6.40
2019,04,17,03,09,6.40
2019,04,17,03,10,6.30
2019,04,17,03,11,6.30
2019,04,17,03,12,6.30
2019,04,17,03,13,6.30
2019,04,17,03,14,6.30
2019,04,17,03,15,6.30
2019,04,17,03,16,6.30
2019,04,17,03,17,6.30
2019,04,17,03,18,6.20
2019,04,17,03,19,6.20
2019,04,17,03,20,6.20
2019,04,17,03,21,6.20
2019,04,17,03,22,6.20
2019,04,17,03,23,6.10
2019,04,17,03,24,6.10
2019,04,17,03,25,6.10
2019,04,17,03,26,6.10
2019,04,17,03,27,6.00
2019,04,17,03,28,6.00
2019,04,17,03,29,6.00
2019,04,17,03,30,6.00
2019,04,17,03,31,5.90
2019,04,17,03,32,5.90
2019,04,17,03,33,5.90
2019,04,17,03,34,5.90
2019,04,17,03,35,5.90
2019,04,17,03,36,5.80
2019,04,17,03,37,5.80
2019,04,17,03,38,5.80
2019,04,17,03,39,5.80
2019,04,17,03,40,5.80
2019,04,17,03,41,5.70
2019,04,17,03,42,5.70
2019,04,17,03,43,5.70
2019,04,17,03,44,5.70
2019,04,17,03,45,5.60
2019,04,17,03,46,5.60
2019,04,17,03,47,5.60
2019,04,17,03,48,5.60
2019,04,17,03,49,5.50
2019,04,17,03,50,5.50
2019,04,17,03,51,5.50
2019,04,17,03,52,5.50
2019,04,17,03,53,5.50
2019,04,17,03,54,5.50
2019,04,17,03,55,5.50
2019,04,17,03,56,5.50
2019,04,17,03,57,5.50
2019,04,17,03,58,5.50
2019,04,17,03,59,5.50
2019,04,17,04,00,5.50
2019,04,17,04,01,5.50
2019,04,17,04,02,5.50
2019,04,17,04,03,5.50
2019,04,17,04,04,5.50
2019,04,17,04,05,5.40
2019,04,17,04,06,5.40
2019,04,17,04,07,5.40
2019,04,17,04,08,5.40
2019,04,17,04,09,5.40
2019,04,17,04,10,5.40
2019,04,17,04,11,5.40
2019,04,17,04,12,5.40
2019,04,17,04,13,5.30
2019,04,17,04,14,5.30
2019,04,17,04,15,5.30
2019,04,17,04,16,5.30
2019,04,17,04,17,5.30
2019,04,17,04,18,5.20
2019,04,17,04,19,5.20
2019,04,17,04,20,5.20
2019,04,17,04,21,5.20
2019,04,17,04,22,5.20
2019,04,17,04,23,5.20
2019,04,17,04,24,5.20
2019,04,17,04,25,5.10
2019,04,17,04,26,5.10
2019,04,17,04,27,5.10
2019,04,17,04,28,5.10
2019,04,17,04,29,5.10
2019,04,17,04,30,5.20
2019,04,17,04,31,5.20
2019,04,17,04,32,5.10
2019,04,17,04,33,5.10
2019,04,17,04,34,5.10
2019,04,17,04,35,5.10
2019,04,17,04,36,5.20
2019,04,17,04,37,5.20
2019,04,17,04,38,5.30
2019,04,17,04,39,5.30
2019,04,17,04,40,5.30
2019,04,17,04,41,5.40
2019,04,17,04,42,5.40
2019,04,17,04,43,5.40
2019,04,17,04,44,5.40
2019,04,17,04,45,5.40
2019,04,17,04,46,5.50
2019,04,17,04,47,5.50
2019,04,17,04,48,5.50
2019,04,17,04,49,5.50
2019,04,17,04,50,5.50
2019,04,17,04,51,5.40
2019,04,17,04,52,5.40
2019,04,17,04,53,5.40
2019,04,17,04,54,5.40
2019,04,17,04,55,5.40
2019,04,17,04,56,5.30
2019,04,17,04,57,5.30
2019,04,17,04,58,5.30
2019,04,17,04,59,5.30
2019,04,17,05,00,5.30
2019,04,17,05,01,5.20
2019,04,17,05,02,5.20
2019,04,17,05,03,5.20
2019,04,17,05,04,5.20
2019,04,17,05,05,5.20
2019,04,17,05,06,5.10
2019,04,17,05,07,5.10
2019,04,17,05,08,5.10
2019,04,17,05,09,5.10
2019,04,17,05,10,5.00
2019,04,17,05,11,5.00
2019,04,17,05,12,5.00
2019,04,17,05,13,4.90
2019,04,17,05,14,4.90
2019,04,17,05,15,4.90
2019,04,17,05,16,4.80
2019,04,17,05,17,4.80
2019,04,17,05,18,4.80
2019,04,17,05,19,4.80
2019,04,17,05,20,4.80
2019,04,17,05,21,4.80
2019,04,17,05,22,4.80
2019,04,17,05,23,4.70
2019,04,17,05,24,4.70
2019,04,17,05,25,4.70
2019,04,17,05,26,4.70
2019,04,17,05,27,4.70
2019,04,17,05,28,4.70
2019,04,17,05,29,4.70
2019,04,17,05,30,4.70
2019,04,17,05,31,4.70
2019,04,17,05,32,4.70
2019,04,17,05,33,4.70
2019,04,17,05,34,4.70
2019,04,17,05,35,4.70
2019,04,17,05,36,4.70
2019,04,17,05,37,4.70
2019,04,17,05,38,4.80
2019,04,17,05,39,4.80
2019,04,17,05,40,4.80
2019,04,17,05,41,4.80
2019,04,17,05,42,4.80
2019,04,17,05,43,4.80
2019,04,17,05,44,4.80
2019,04,17,05,45,4.80
2019,04,17,05,46,4.90
2019,04,17,05,47,4.90
2019,04,17,05,48,4.90
2019,04,17,05,49,4.90
2019,04,17,05,50,4.90
2019,04,17,05,51,4.90
2019,04,17,05,52,4.90
2019,04,17,05,53,4.90
2019,04,17,05,54,4.90
2019,04,17,05,55,4.90
2019,04,17,05,56,4.90
2019,04,17,05,57,4.90
2019,04,17,05,58,4.90
2019,04,17,05,59,4.90
2019,04,17,06,00,4.90
2019,04,17,06,01,4.90
2019,04,17,06,02,4.90
2019,04,17,06,03,4.90
2019,04,17,06,04,5.00
2019,04,17,06,05,5.00
2019,04,17,06,06,5.00
2019,04,17,06,07,5.10
2019,04,17,06,08,5.10
2019,04,17,06,09,5.20
2019,04,17,06,10,5.20
2019,04,17,06,11,5.30
2019,04,17,06,12,5.40
2019,04,17,06,13,5.40
2019,04,17,06,14,5.50
2019,04,17,06,15,5.60
2019,04,17,06,16,5.60
2019,04,17,06,17,5.60
2019,04,17,06,18,5.70
2019,04,17,06,19,5.70
2019,04,17,06,20,5.80
2019,04,17,06,21,5.80
2019,04,17,06,22,5.80
2019,04,17,06,23,5.80
2019,04,17,06,24,5.90
2019,04,17,06,25,5.90
2019,04,17,06,26,6.00
2019,04,17,06,27,6.10
2019,04,17,06,28,6.10
2019,04,17,06,29,6.10
2019,04,17,06,30,6.20
2019,04,17,06,31,6.20
2019,04,17,06,32,6.20
2019,04,17,06,33,6.30
2019,04,17,06,34,6.30
2019,04,17,06,35,6.30
2019,04,17,06,36,6.30
2019,04,17,06,37,6.40
2019,04,17,06,38,6.40
2019,04,17,06,39,6.40
2019,04,17,06,40,6.50
2019,04,17,06,41,6.50
2019,04,17,06,42,6.50
2019,04,17,06,43,6.60
2019,04,17,06,44,6.60
2019,04,17,06,45,6.60
2019,04,17,06,46,6.60
2019,04,17,06,47,6.70
2019,04,17,06,48,6.70
2019,04,17,06,49,6.70
2019,04,17,06,50,6.70
2019,04,17,06,51,6.80
2019,04,17,06,52,6.80
2019,04,17,06,53,6.90
2019,04,17,06,54,6.90
2019,04,17,06,55,6.90
2019,04,17,06,56,7.00
2019,04,17,06,57,7.00
2019,04,17,06,58,7.10
2019,04,17,06,59,7.10
2019,04,17,07,00,7.10
2019,04,17,07,01,7.20
2019,04,17,07,02,7.20
2019,04,17,07,03,7.30
2019,04,17,07,04,7.30
2019,04,17,07,05,7.30
2019,04,17,07,06,7.40
2019,04,17,07,07,7.40
2019,04,17,07,08,7.40
2019,04,17,07,09,7.50
2019,04,17,07,10,7.50
2019,04,17,07,11,7.50
2019,04,17,07,12,7.60
2019,04,17,07,13,7.60
2019,04,17,07,14,7.70
2019,04,17,07,15,7.70
2019,04,17,07,16,7.80
2019,04,17,07,17,7.80
2019,04,17,07,18,7.80
2019,04,17,07,19,7.90
2019,04,17,07,20,7.90
2019,04,17,07,21,8.00
2019,04,17,07,22,8.00
2019,04,17,07,23,8.10
2019,04,17,07,24,8.10
2019,04,17,07,25,8.10
2019,04,17,07,26,8.20
2019,04,17,07,27,8.20
2019,04,17,07,28,8.20
2019,04,17,07,29,8.20
2019,04,17,07,30,8.30
2019,04,17,07,31,8.30
2019,04,17,07,32,8.30
2019,04,17,07,33,8.30
2019,04,17,07,34,8.40
2019,04,17,07,35,8.40
2019,04,17,07,36,8.40
2019,04,17,07,37,8.40
2019,04,17,07,38,8.50
2019,04,17,07,39,8.50
2019,04,17,07,40,8.50
2019,04,17,07,41,8.60
2019,04,17,07,42,8.60
2019,04,17,07,43,8.60
2019,04,17,07,44,8.60
2019,04,17,07,45,8.60
2019,04,17,07,46,8.60
2019,04,17,07,47,8.60
2019,04,17,07,48,8.70
2019,04,17,07,49,8.70
2019,04,17,07,50,8.70
2019,04,17,07,51,8.70
2019,04,17,07,52,8.70
2019,04,17,07,53,8.70
2019,04,17,07,54,8.80
2019,04,17,07,55,8.80
2019,04,17,07,56,8.80
2019,04,17,07,57,8.80
2019,04,17,07,58,8.80
2019,04,17,07,59,8.80
2019,04,17,08,00,8.90
2019,04,17,08,01,8.90
2019,04,17,08,02,8.90
2019,04,17,08,03,8.90
2019,04,17,08,04,8.90
2019,04,17,08,05,8.90
2019,04,17,08,06,8.90
2019,04,17,08,07,9.00
2019,04,17,08,08,9.00
2019,04,17,08,09,9.00
2019,04,17,08,10,9.00
2019,04,17,08,11,9.00
2019,04,17,08,12,9.00
2019,04,17,08,13,9.10
2019,04,17,08,14,9.10
2019,04,17,08,15,9.10
2019,04,17,08,16,9.10
2019,04,17,08,17,9.10
2019,04,17,08,18,9.10
2019,04,17,08,19,9.20
2019,04,17,08,20,9.20
2019,04,17,08,21,9.20
2019,04,17,08,22,9.20
2019,04,17,08,23,9.30
2019,04,17,08,24,9.30
2019,04,17,08,25,9.30
2019,04,17,08,26,9.30
2019,04,17,08,27,9.40
2019,04,17,08,28,9.40
2019,04,17,08,29,9.40
2019,04,17,08,30,9.50
2019,04,17,08,31,9.50
2019,04,17,08,32,9.50
2019,04,17,08,33,9.60
2019,04,17,08,34,9.60
2019,04,17,08,35,9.70
2019,04,17,08,36,9.70
2019,04,17,08,37,9.70
2019,04,17,08,38,9.80
2019,04,17,08,39,9.80
2019,04,17,08,40,9.90
2019,04,17,08,41,9.90
2019,04,17,08,42,10.00
2019,04,17,08,43,10.00
2019,04,17,08,44,10.10
2019,04,17,08,45,10.10
2019,04,17,08,46,10.10
2019,04,17,08,47,10.20
2019,04,17,08,48,10.20
2019,04,17,08,49,10.20
2019,04,17,08,50,10.20
2019,04,17,08,51,10.20
2019,04,17,08,52,10.20
2019,04,17,08,53,10.20
2019,04,17,08,54,10.20
2019,04,17,08,55,10.20
2019,04,17,08,56,10.20
2019,04,17,08,57,10.20
2019,04,17,08,58,10.20
2019,04,17,08,59,10.20
2019,04,17,09,00,10.20
2019,04,17,09,01,10.20
2019,04,17,09,02,10.20
2019,04,17,09,03,10.20
2019,04,17,09,04,10.20
2019,04,17,09,05,10.20
2019,04,17,09,06,10.20
2019,04,17,09,07,10.20
2019,04,17,09,08,10.20
2019,04,17,09,09,10.20
2019,04,17,09,10,10.20
2019,04,17,09,11,10.20
2019,04,17,09,12,10.20
2019,04,17,09,13,10.20
2019,04,17,09,14,10.20
2019,04,17,09,15,10.20
2019,04,17,09,16,10.20
2019,04,17,09,17,10.20
2019,04,17,09,18,10.20
2019,04,17,09,19,10.20
2019,04,17,09,20,10.20
2019,04,17,09,21,10.20
2019,04,17,09,22,10.20
2019,04,17,09,23,10.20
2019,04,17,09,24,10.20
2019,04,17,09,25,10.30
2019,04,17,09,26,10.30
2019,04,17,09,27,10.30
2019,04,17,09,28,10.30
2019,04,17,09,29,10.30
2019,04,17,09,30,10.30
2019,04,17,09,31,10.30
2019,04,17,09,32,10.40
2019,04,17,09,33,10.30
2019,04,17,09,34,10.40
2019,04,17,09,35,10.30
2019,04,17,09,36,10.40
2019,04,17,09,37,10.40
2019,04,17,09,38,10.40
2019,04,17,09,39,10.40
2019,04,17,09,40,10.40
2019,04,17,09,41,10.40
2019,04,17,09,42,10.40
2019,04,17,09,43,10.40
2019,04,17,09,44,10.40
2019,04,17,09,45,10.40
2019,04,17,09,46,10.40
2019,04,17,09,47,10.40
2019,04,17,09,48,10.40
2019,04,17,09,49,10.40
2019,04,17,09,50,10.40
2019,04,17,09,51,10.40
2019,04,17,09,52,10.50
2019,04,17,09,53,10.50
2019,04,17,09,54,10.50
2019,04,17,09,55,10.60
2019,04,17,09,56,10.60
2019,04,17,09,57,10.60
2019,04,17,09,58,10.70
2019,04,17,09,59,10.70
2019,04,17,10,00,10.70
2019,04,17,10,01,10.80
2019,04,17,10,02,10.80
2019,04,17,10,03,10.80
2019,04,17,10,04,10.90
2019,04,17,10,05,10.90
2019,04,17,10,06,10.90
2019,04,17,10,07,11.00
2019,04,17,10,08,11.00
2019,04,17,10,09,11.00
2019,04,17,10,10,11.10
2019,04,17,10,11,11.00
2019,04,17,10,12,11.00
2019,04,17,10,13,11.00
2019,04,17,10,14,11.00
2019,04,17,10,15,11.00
2019,04,17,10,16,11.00
2019,04,17,10,17,11.00
2019,04,17,10,18,11.00
2019,04,17,10,19,11.00
2019,04,17,10,20,10.90
2019,04,17,10,21,11.00
2019,04,17,10,22,11.00
2019,04,17,10,23,11.10
2019,04,17,10,24,11.00
2019,04,17,10,25,11.00
2019,04,17,10,26,11.00
2019,04,17,10,27,11.10
2019,04,17,10,28,11.10
2019,04,17,10,29,11.10
2019,04,17,10,30,11.10
2019,04,17,10,31,11.10
2019,04,17,10,32,11.00
2019,04,17,10,33,11.00
2019,04,17,10,34,11.00
2019,04,17,10,35,11.00
2019,04,17,10,36,11.10
2019,04,17,10,37,11.10
2019,04,17,10,38,11.10
2019,04,17,10,39,11.10
2019,04,17,10,40,11.10
2019,04,17,10,41,11.10
2019,04,17,10,42,11.10
2019,04,17,10,43,11.10
2019,04,17,10,44,11.10
2019,04,17,10,45,11.10
2019,04,17,10,46,11.20
2019,04,17,10,47,11.20
2019,04,17,10,48,11.20
2019,04,17,10,49,11.20
2019,04,17,10,50,11.30
2019,04,17,10,51,11.30
2019,04,17,10,52,11.30
2019,04,17,10,53,11.30
2019,04,17,10,54,11.40
2019,04,17,10,55,11.40
2019,04,17,10,56,11.40
2019,04,17,10,57,11.50
2019,04,17,10,58,11.50
2019,04,17,10,59,11.60
2019,04,17,11,00,11.60
2019,04,17,11,01,11.60
2019,04,17,11,02,11.70
2019,04,17,11,03,11.70
2019,04,17,11,04,11.70
2019,04,17,11,05,11.80
2019,04,17,11,06,11.80
2019,04,17,11,07,11.90
2019,04,17,11,08,11.90
2019,04,17,11,09,11.90
2019,04,17,11,10,12.00
2019,04,17,11,11,12.00
2019,04,17,11,12,12.00
2019,04,17,11,13,12.10
2019,04,17,11,14,12.10
2019,04,17,11,15,12.10
2019,04,17,11,16,12.10
2019,04,17,11,17,12.10
2019,04,17,11,18,12.10
2019,04,17,11,19,12.10
2019,04,17,11,20,12.10
2019,04,17,11,21,12.10
2019,04,17,11,22,12.10
2019,04,17,11,23,12.10
2019,04,17,11,24,12.10
2019,04,17,11,25,12.20
2019,04,17,11,26,12.20
2019,04,17,11,27,12.30
2019,04,17,11,28,12.30
2019,04,17,11,29,12.40
2019,04,17,11,30,12.40
2019,04,17,11,31,12.50
2019,04,17,11,32,12.50
2019,04,17,11,33,12.60
2019,04,17,11,34,12.60
2019,04,17,11,35,12.60
2019,04,17,11,36,12.60
2019,04,17,11,37,12.60
2019,04,17,11,38,12.60
2019,04,17,11,39,12.50
2019,04,17,11,40,12.60
2019,04,17,11,41,12.70
2019,04,17,11,42,12.70
2019,04,17,11,43,12.80
2019,04,17,11,44,12.90
2019,04,17,11,45,13.00
2019,04,17,11,46,13.10
2019,04,17,11,47,13.20
2019,04,17,11,48,13.30
2019,04,17,11,49,13.50
2019,04,17,11,50,13.60
2019,04,17,11,51,13.70
2019,04,17,11,52,13.80
2019,04,17,11,53,13.80
2019,04,17,11,54,13.80
2019,04,17,11,55,13.90
2019,04,17,11,56,13.90
2019,04,17,11,57,14.00
2019,04,17,11,58,14.00
2019,04,17,11,59,13.90
2019,04,17,12,00,13.90
2019,04,17,12,01,13.90
2019,04,17,12,02,13.90
2019,04,17,12,03,13.90
2019,04,17,12,04,13.90
2019,04,17,12,05,13.90
2019,04,17,12,06,13.90
2019,04,17,12,07,13.80
2019,04,17,12,08,13.80
2019,04,17,12,09,13.80
2019,04,17,12,10,13.90
2019,04,17,12,11,13.90
2019,04,17,12,12,13.90
2019,04,17,12,13,13.90
2019,04,17,12,14,13.80
2019,04,17,12,15,13.80
2019,04,17,12,16,13.70
2019,04,17,12,17,13.70
2019,04,17,12,18,13.60
2019,04,17,12,19,13.50
2019,04,17,12,20,13.40
2019,04,17,12,21,13.30
2019,04,17,12,22,13.30
2019,04,17,12,23,13.30
2019,04,17,12,24,13.20
2019,04,17,12,25,13.10
2019,04,17,12,26,13.10
2019,04,17,12,27,13.00
2019,04,17,12,28,13.00
2019,04,17,12,29,13.10
2019,04,17,12,30,13.10
2019,04,17,12,31,13.10
2019,04,17,12,32,13.10
2019,04,17,12,33,13.10
2019,04,17,12,34,13.20
2019,04,17,12,35,13.20
2019,04,17,12,36,13.30
2019,04,17,12,37,13.40
2019,04,17,12,38,13.40
2019,04,17,12,39,13.50
2019,04,17,12,40,13.50
2019,04,17,12,41,13.60
2019,04,17,12,42,13.60
2019,04,17,12,43,13.60
2019,04,17,12,44,13.60
2019,04,17,12,45,13.60
2019,04,17,12,46,13.60
2019,04,17,12,47,13.60
2019,04,17,12,48,13.60
2019,04,17,12,49,13.60
2019,04,17,12,50,13.50
2019,04,17,12,51,13.50
2019,04,17,12,52,13.50
2019,04,17,12,53,13.50
2019,04,17,12,54,13.60
2019,04,17,12,55,13.60
2019,04,17,12,56,13.50
2019,04,17,12,57,13.50
2019,04,17,12,58,13.50
2019,04,17,12,59,13.60
2019,04,17,13,00,13.60
2019,04,17,13,01,13.60
2019,04,17,13,02,13.60
2019,04,17,13,03,13.70
2019,04,17,13,04,13.70
2019,04,17,13,05,13.70
2019,04,17,13,06,13.60
2019,04,17,13,07,13.60
2019,04,17,13,08,13.60
2019,04,17,13,09,13.60
2019,04,17,13,10,13.70
2019,04,17,13,11,13.70
2019,04,17,13,12,13.80
2019,04,17,13,13,13.80
2019,04,17,13,14,13.90
2019,04,17,13,15,13.90
2019,04,17,13,16,13.90
2019,04,17,13,17,13.90
2019,04,17,13,18,13.90
2019,04,17,13,19,14.00
2019,04,17,13,20,14.00
2019,04,17,13,21,14.00
2019,04,17,13,22,14.00
2019,04,17,13,23,14.10
2019,04,17,13,24,14.20
2019,04,17,13,25,14.30
2019,04,17,13,26,14.40
2019,04,17,13,27,14.50
2019,04,17,13,28,14.50
2019,04,17,13,29,14.60
2019,04,17,13,30,14.60
2019,04,17,13,31,14.60
2019,04,17,13,32,14.60
2019,04,17,13,33,14.50
2019,04,17,13,34,14.50
2019,04,17,13,35,14.40
2019,04,17,13,36,14.40
2019,04,17,13,37,14.40
2019,04,17,13,38,14.30
2019,04,17,13,39,14.30
2019,04,17,13,40,14.20
2019,04,17,13,41,14.20
2019,04,17,13,42,14.20
2019,04,17,13,43,14.20
2019,04,17,13,44,14.20
2019,04,17,13,45,14.20
2019,04,17,13,46,14.20
2019,04,17,13,47,14.30
2019,04,17,13,48,14.20
2019,04,17,13,49,14.20
2019,04,17,13,50,14.10
2019,04,17,13,51,14.00
2019,04,17,13,52,13.90
2019,04,17,13,53,13.90
2019,04,17,13,54,13.90
2019,04,17,13,55,14.00
2019,04,17,13,56,14.10
2019,04,17,13,57,14.20
2019,04,17,13,58,14.40
2019,04,17,13,59,14.50
2019,04,17,14,00,14.60
2019,04,17,14,01,14.70
2019,04,17,14,02,14.80
2019,04,17,14,03,14.80
2019,04,17,14,04,14.80
2019,04,17,14,05,14.80
2019,04,17,14,06,14.80
2019,04,17,14,07,14.70
2019,04,17,14,08,14.70
2019,04,17,14,09,14.60
2019,04,17,14,10,14.50
2019,04,17,14,11,14.50
2019,04,17,14,12,14.40
2019,04,17,14,13,14.40
2019,04,17,14,14,14.40
2019,04,17,14,15,14.30
2019,04,17,14,16,14.30
2019,04,17,14,17,14.30
2019,04,17,14,18,14.20
2019,04,17,14,19,14.20
2019,04,17,14,20,14.20
2019,04,17,14,21,14.10
2019,04,17,14,22,14.10
2019,04,17,14,23,14.10
2019,04,17,14,24,14.10
2019,04,17,14,25,14.20
2019,04,17,14,26,14.20
2019,04,17,14,27,14.30
2019,04,17,14,28,14.40
2019,04,17,14,29,14.40
2019,04,17,14,30,14.50
2019,04,17,14,31,14.60
2019,04,17,14,32,14.70
2019,04,17,14,33,14.80
2019,04,17,14,34,14.80
2019,04,17,14,35,14.90
2019,04,17,14,36,15.00
2019,04,17,14,37,15.10
2019,04,17,14,38,15.20
2019,04,17,14,39,15.30
2019,04,17,14,40,15.30
2019,04,17,14,41,15.20
2019,04,17,14,42,15.20
2019,04,17,14,43,15.00
2019,04,17,14,44,14.90
2019,04,17,14,45,14.80
2019,04,17,14,46,14.70
2019,04,17,14,47,14.70
2019,04,17,14,48,14.70
2019,04,17,14,49,14.60
2019,04,17,14,50,14.70
2019,04,17,14,51,14.70
2019,04,17,14,52,14.70
2019,04,17,14,53,14.70
2019,04,17,14,54,14.60
2019,04,17,14,55,14.50
2019,04,17,14,56,14.50
2019,04,17,14,57,14.40
2019,04,17,14,58,14.40
2019,04,17,14,59,14.30
2019,04,17,15,00,14.30
2019,04,17,15,01,14.20
2019,04,17,15,02,14.20
2019,04,17,15,03,14.10
2019,04,17,15,04,14.10
2019,04,17,15,05,14.10
2019,04,17,15,06,14.00
2019,04,17,15,07,14.00
2019,04,17,15,08,13.90
2019,04,17,15,09,13.90
2019,04,17,15,10,13.80
2019,04,17,15,11,13.80
2019,04,17,15,12,13.70
2019,04,17,15,13,13.70
2019,04,17,15,14,13.70
2019,04,17,15,15,13.60
2019,04,17,15,16,13.60
2019,04,17,15,17,13.60
2019,04,17,15,18,13.60
2019,04,17,15,19,13.70
2019,04,17,15,20,13.70
2019,04,17,15,21,13.70
2019,04,17,15,22,13.80
2019,04,17,15,23,13.80
2019,04,17,15,24,13.80
2019,04,17,15,25,13.80
2019,04,17,15,26,13.80
2019,04,17,15,27,13.80
2019,04,17,15,28,13.90
2019,04,17,15,29,13.90
2019,04,17,15,30,13.90
2019,04,17,15,31,14.00
2019,04,17,15,32,14.00
2019,04,17,15,33,14.20
2019,04,17,15,34,14.20
2019,04,17,15,35,14.30
2019,04,17,15,36,14.50
2019,04,17,15,37,14.60
2019,04,17,15,38,14.70
2019,04,17,15,39,14.80
2019,04,17,15,40,14.90
2019,04,17,15,41,14.90
2019,04,17,15,42,14.80
2019,04,17,15,43,14.70
2019,04,17,15,44,14.60
2019,04,17,15,45,14.50
2019,04,17,15,46,14.40
2019,04,17,15,47,14.40
2019,04,17,15,48,14.30
2019,04,17,15,49,14.20
2019,04,17,15,50,14.10
2019,04,17,15,51,14.00
2019,04,17,15,52,13.90
2019,04,17,15,53,13.80
2019,04,17,15,54,13.80
2019,04,17,15,55,13.70
2019,04,17,15,56,13.70
2019,04,17,15,57,13.70
2019,04,17,15,58,13.70
2019,04,17,15,59,13.60
2019,04,17,16,00,13.60
2019,04,17,16,01,13.60
2019,04,17,16,02,13.60
2019,04,17,16,03,13.50
2019,04,17,16,04,13.50
2019,04,17,16,05,13.50
2019,04,17,16,06,13.50
2019,04,17,16,07,13.40
2019,04,17,16,08,13.40
2019,04,17,16,09,13.40
2019,04,17,16,10,13.40
2019,04,17,16,11,13.40
2019,04,17,16,12,13.40
2019,04,17,16,13,13.30
2019,04,17,16,14,13.30
2019,04,17,16,15,13.30
2019,04,17,16,16,13.30
2019,04,17,16,17,13.20
2019,04,17,16,18,13.20
2019,04,17,16,19,13.20
2019,04,17,16,20,13.10
2019,04,17,16,21,13.10
2019,04,17,16,22,13.10
2019,04,17,16,23,13.10
2019,04,17,16,24,13.00
2019,04,17,16,25,13.00
2019,04,17,16,26,13.00
2019,04,17,16,27,12.90
2019,04,17,16,28,12.90
2019,04,17,16,29,12.90
2019,04,17,16,30,12.90
2019,04,17,16,31,12.80
2019,04,17,16,32,12.80
2019,04,17,16,33,12.80
2019,04,17,16,34,12.80
2019,04,17,16,35,12.70
2019,04,17,16,36,12.70
2019,04,17,16,37,12.70
2019,04,17,16,38,12.70
2019,04,17,16,39,12.70
2019,04,17,16,40,12.60
2019,04,17,16,41,12.60
2019,04,17,16,42,12.60
2019,04,17,16,43,12.60
2019,04,17,16,44,12.60
2019,04,17,16,45,12.60
2019,04,17,16,46,12.60
2019,04,17,16,47,12.60
2019,04,17,16,48,12.60
2019,04,17,16,49,12.60
2019,04,17,16,50,12.50
2019,04,17,16,51,12.50
2019,04,17,16,52,12.50
2019,04,17,16,53,12.50
2019,04,17,16,54,12.50
2019,04,17,16,55,12.50
2019,04,17,16,56,12.50
2019,04,17,16,57,12.50
2019,04,17,16,58,12.50
2019,04,17,16,59,12.40
2019,04,17,17,00,12.40
2019,04,17,17,01,12.40
2019,04,17,17,02,12.40
2019,04,17,17,03,12.40
2019,04,17,17,04,12.40
2019,04,17,17,05,12.40
2019,04,17,17,06,12.40
2019,04,17,17,07,12.40
2019,04,17,17,08,12.40
2019,04,17,17,09,12.40
2019,04,17,17,10,12.30
2019,04,17,17,11,12.30
2019,04,17,17,12,12.30
2019,04,17,17,13,12.30
2019,04,17,17,14,12.30
2019,04,17,17,15,12.30
2019,04,17,17,16,12.30
2019,04,17,17,17,12.30
2019,04,17,17,18,12.30
2019,04,17,17,19,12.30
2019,04,17,17,20,12.30
2019,04,17,17,21,12.30
2019,04,17,17,22,12.30
2019,04,17,17,23,12.30
2019,04,17,17,24,12.40
2019,04,17,17,25,12.40
2019,04,17,17,26,12.40
2019,04,17,17,27,12.40
2019,04,17,17,28,12.40
2019,04,17,17,29,12.40
2019,04,17,17,30,12.40
2019,04,17,17,31,12.40
2019,04,17,17,32,12.40
2019,04,17,17,33,12.40
2019,04,17,17,34,12.40
2019,04,17,17,35,12.40
2019,04,17,17,36,12.40
2019,04,17,17,37,12.30
2019,04,17,17,38,12.30
2019,04,17,17,39,12.30
2019,04,17,17,40,12.30
2019,04,17,17,41,12.30
2019,04,17,17,42,12.20